Location: Czekanka
(50.4925°N, 19.2643°E)
Time: 01:24:13
(UTC+00:00)

CZ-2C R/B - Pass Details

Date: 24 September 2024
Orbit: 703 x 903 km, 98.2° (Epoch: 09 October)

Event Time Altitude Azimuth Distance (km) Brightness Sun altitude
Rises 01:59:01 0° 8° (N) 3,539 7.0 -24.1°
Reaches altitude 10° 02:01:44 10° 357° (N) 2,596 6.1 -23.7°
Maximum altitude 02:06:36 29° 300° (WNW) 1,603 4.4 -23.1°
Enters shadow 02:06:44 29° 298° (WNW) 1,604 4.3 -23.0°
